When you browse on this site, cookies collect data to enhance your experience and personalize the content and advertising you see.
Visit our Privacy Policy to learn more. By continuing to use the site, you agree to this use of cookies and data.
  • In Hungary
  • List of Countries
  • For 7 days
  • Water Temperature
  • Satellite Maps
  • Weather Map
  • News
  • Weather Widgets
  • user-avatar
    Login

    Hourly Weather Verhniy Voch

    Today, 21 November, Wednesday

    Time Temperature Precipitation Wind Pressure Humidity
    00:00 -6°C° 0.1 mm 3 mps 738 mmHg 89%
    01:00 -6°C° 0.1 mm 3 mps 738 mmHg 90%
    02:00 -5°C° 0.1 mm 3 mps 737 mmHg 90%
    03:00 -5°C° 0.1 mm 3 mps 737 mmHg 90%
    04:00 -6°C° 0 mm 3 mps 736 mmHg 90%
    05:00 -5°C° 0.2 mm 3 mps 736 mmHg 91%
    06:00 -5°C° 0.2 mm 3 mps 736 mmHg 92%
    07:00 -4°C° 0.2 mm 3 mps 735 mmHg 93%
    08:00 -4°C° 0.3 mm 3 mps 735 mmHg 91%
    09:00 -4°C° 0.3 mm 4 mps 735 mmHg 89%
    10:00 -4°C° 0.3 mm 4 mps 735 mmHg 87%
    11:00 -5°C° 0.2 mm 4 mps 736 mmHg 85%
    12:00 -7°C° 0.2 mm 4 mps 736 mmHg 82%
    13:00 -7°C° 0.2 mm 4 mps 736 mmHg 79%
    14:00 -7°C° 0.1 mm 3 mps 737 mmHg 82%
    15:00 -8°C° 0.1 mm 3 mps 737 mmHg 84%
    16:00 -8°C° 0.1 mm 3 mps 737 mmHg 87%
    17:00 -8°C° 0 mm 2 mps 737 mmHg 89%
    18:00 -9°C° 0 mm 2 mps 737 mmHg 91%
    19:00 -9°C° 0 mm 2 mps 737 mmHg 93%
    20:00 -9°C° 0.1 mm 2 mps 737 mmHg 93%
    21:00 -9°C° 0.1 mm 2 mps 737 mmHg 92%
    22:00 -9°C° 0.1 mm 2 mps 737 mmHg 92%
    23:00 -10°C° 0 mm 2 mps 737 mmHg 93%

    Tomorrow, 22 November, Thursday

    Time Temperature Precipitation Wind Pressure Humidity
    00:00 -12°C° 0 mm 2 mps 737 mmHg 94%
    01:00 -13°C° 0 mm 2 mps 737 mmHg 94%
    02:00 -13°C° 0 mm 2 mps 737 mmHg 95%
    03:00 -14°C° 0 mm 2 mps 737 mmHg 96%
    04:00 -13°C° 0 mm 1 mps 736 mmHg 97%
    05:00 -13°C° 0 mm 1 mps 736 mmHg 97%
    06:00 -13°C° 0 mm 1 mps 736 mmHg 97%
    07:00 -13°C° 0 mm 1 mps 735 mmHg 97%
    08:00 -13°C° 0 mm 1 mps 735 mmHg 97%
    09:00 -13°C° 0 mm 1 mps 735 mmHg 97%
    10:00 -13°C° 0 mm 1 mps 734 mmHg 97%
    11:00 -12°C° 0 mm 1 mps 734 mmHg 95%
    12:00 -11°C° 0 mm 1 mps 733 mmHg 94%
    13:00 -10°C° 0 mm 1 mps 733 mmHg 93%
    14:00 -11°C° 0 mm 1 mps 733 mmHg 94%
    15:00 -12°C° 0 mm 1 mps 732 mmHg 95%
    16:00 -12°C° 0 mm 1 mps 732 mmHg 97%
    17:00 -12°C° 0 mm 1 mps 732 mmHg 97%
    18:00 -12°C° 0 mm 1 mps 732 mmHg 97%
    19:00 -12°C° 0 mm 1 mps 732 mmHg 97%
    20:00 -13°C° 0 mm 1 mps 732 mmHg 97%
    21:00 -13°C° 0 mm 1 mps 733 mmHg 97%
    22:00 -14°C° 0 mm 1 mps 733 mmHg 97%
    23:00 -14°C° 0 mm 1 mps 733 mmHg 97%

    Day after tomorrow, 23 November, Friday

    Time Temperature Precipitation Wind Pressure Humidity
    00:00 -14°C° 0 mm 1 mps 734 mmHg 97%
    01:00 -15°C° 0 mm 0 mps 735 mmHg 97%
    02:00 -15°C° 0 mm 1 mps 735 mmHg 97%
    03:00 -15°C° 0 mm 1 mps 736 mmHg 97%
    04:00 -15°C° 0 mm 1 mps 736 mmHg 97%
    05:00 -15°C° 0 mm 1 mps 737 mmHg 97%
    06:00 -14°C° 0 mm 1 mps 737 mmHg 97%
    07:00 -14°C° 0 mm 1 mps 738 mmHg 97%
    08:00 -14°C° 0 mm 1 mps 738 mmHg 97%
    09:00 -13°C° 0 mm 1 mps 739 mmHg 97%
    10:00 -13°C° 0 mm 1 mps 739 mmHg 97%
    11:00 -12°C° 0 mm 1 mps 740 mmHg 94%
    12:00 -13°C° 0 mm 2 mps 740 mmHg 91%
    13:00 -13°C° 0 mm 2 mps 741 mmHg 89%
    14:00 -13°C° 0 mm 2 mps 741 mmHg 91%
    15:00 -12°C° 0 mm 1 mps 741 mmHg 93%
    16:00 -13°C° 0 mm 1 mps 741 mmHg 95%
    17:00 -13°C° 0 mm 1 mps 741 mmHg 95%
    18:00 -13°C° 0 mm 1 mps 741 mmHg 96%
    19:00 -14°C° 0 mm 1 mps 741 mmHg 96%
    20:00 -13°C° 0.1 mm 1 mps 741 mmHg 96%
    21:00 -13°C° 0.1 mm 1 mps 741 mmHg 96%
    22:00 -14°C° 0.1 mm 2 mps 741 mmHg 96%
    23:00 -13°C° 0.1 mm 2 mps 740 mmHg 96%

    24 November, Saturday

    Time Temperature Precipitation Wind Pressure Humidity
    00:00 -13°C° 0.1 mm 2 mps 740 mmHg 96%
    01:00 -12°C° 0.1 mm 2 mps 740 mmHg 96%
    02:00 -12°C° 0.1 mm 2 mps 740 mmHg 96%
    03:00 -9°C° 0.1 mm 1 mps 740 mmHg 96%
    04:00 -9°C° 0.1 mm 1 mps 740 mmHg 97%
    05:00 -9°C° 0 mm 1 mps 740 mmHg 97%
    06:00 -10°C° 0 mm 1 mps 739 mmHg 97%
    07:00 -10°C° 0 mm 1 mps 739 mmHg 98%
    08:00 -9°C° 0.1 mm 1 mps 738 mmHg 97%
    09:00 -10°C° 0.1 mm 2 mps 738 mmHg 97%
    10:00 -9°C° 0.1 mm 2 mps 738 mmHg 96%
    11:00 -9°C° 0.2 mm 2 mps 737 mmHg 95%
    12:00 -9°C° 0.2 mm 3 mps 736 mmHg 94%
    13:00 -8°C° 0.2 mm 3 mps 736 mmHg 93%
    14:00 -8°C° 0.4 mm 3 mps 735 mmHg 93%
    15:00 -8°C° 0.4 mm 3 mps 735 mmHg 94%
    16:00 -7°C° 0.4 mm 3 mps 734 mmHg 94%
    17:00 -7°C° 0.3 mm 3 mps 734 mmHg 94%
    18:00 -6°C° 0.3 mm 2 mps 733 mmHg 94%
    19:00 -5°C° 0.3 mm 2 mps 733 mmHg 94%
    20:00 -5°C° 0.3 mm 2 mps 733 mmHg 94%
    21:00 -5°C° 0.3 mm 2 mps 733 mmHg 95%
    22:00 -5°C° 0.3 mm 2 mps 733 mmHg 95%
    23:00 -4°C° 0.3 mm 2 mps 733 mmHg 94%

    25 November, Sunday

    Time Temperature Precipitation Wind Pressure Humidity
    00:00 -4°C° 0.3 mm 2 mps 733 mmHg 94%
    01:00 -4°C° 0.3 mm 2 mps 733 mmHg 93%
    02:00 -4°C° 0.2 mm 2 mps 733 mmHg 93%
    03:00 -5°C° 0.2 mm 3 mps 733 mmHg 93%
    04:00 -6°C° 0.2 mm 3 mps 733 mmHg 93%
    05:00 -5°C° 0.3 mm 2 mps 734 mmHg 93%
    06:00 -6°C° 0.3 mm 2 mps 734 mmHg 94%
    07:00 -6°C° 0.3 mm 2 mps 734 mmHg 94%
    08:00 -6°C° 0.2 mm 2 mps 734 mmHg 94%
    09:00 -7°C° 0.2 mm 2 mps 735 mmHg 94%
    10:00 -7°C° 0.2 mm 2 mps 735 mmHg 94%
    11:00 -8°C° 0.1 mm 2 mps 736 mmHg 94%
    12:00 -8°C° 0.1 mm 2 mps 737 mmHg 93%
    13:00 -9°C° 0.1 mm 2 mps 738 mmHg 93%
    14:00 -10°C° 0 mm 2 mps 739 mmHg 93%
    15:00 -12°C° 0 mm 2 mps 740 mmHg 94%
    16:00 -13°C° 0 mm 2 mps 741 mmHg 94%
    17:00 -14°C° 0 mm 2 mps 741 mmHg 94%
    18:00 -15°C° 0 mm 2 mps 742 mmHg 95%
    19:00 -14°C° 0 mm 1 mps 743 mmHg 95%
    20:00 -15°C° 0 mm 1 mps 744 mmHg 96%
    21:00 -16°C° 0 mm 1 mps 744 mmHg 96%
    22:00 -17°C° 0 mm 1 mps 745 mmHg 96%
    23:00 -18°C° 0 mm 1 mps 745 mmHg 96%

    26 November, Monday

    Time Temperature Precipitation Wind Pressure Humidity
    00:00 -18°C° 0 mm 0 mps 745 mmHg 96%
    01:00 -19°C° 0 mm 0 mps 746 mmHg 96%
    02:00 -19°C° 0 mm 0 mps 746 mmHg 96%
    03:00 -19°C° 0 mm 0 mps 746 mmHg 96%
    04:00 -20°C° 0 mm 0 mps 747 mmHg 96%
    05:00 -20°C° 0 mm 0 mps 747 mmHg 97%
    06:00 -19°C° 0 mm 0 mps 747 mmHg 97%
    07:00 -19°C° 0 mm 1 mps 747 mmHg 97%
    08:00 -19°C° 0 mm 1 mps 747 mmHg 97%
    09:00 -19°C° 0 mm 1 mps 747 mmHg 97%
    10:00 -18°C° 0 mm 1 mps 747 mmHg 97%
    11:00 -17°C° 0 mm 1 mps 747 mmHg 96%
    12:00 -16°C° 0 mm 1 mps 747 mmHg 95%
    13:00 -15°C° 0 mm 1 mps 747 mmHg 95%
    14:00 -16°C° 0 mm 1 mps 747 mmHg 96%
    15:00 -16°C° 0 mm 1 mps 747 mmHg 96%
    16:00 -18°C° 0 mm 2 mps 747 mmHg 97%
    17:00 -18°C° 0 mm 2 mps 746 mmHg 97%
    18:00 -17°C° 0 mm 2 mps 746 mmHg 97%
    19:00 -17°C° 0 mm 2 mps 746 mmHg 97%
    20:00 -17°C° 0 mm 2 mps 746 mmHg 97%
    21:00 -17°C° 0 mm 2 mps 745 mmHg 97%
    22:00 -17°C° 0 mm 2 mps 745 mmHg 97%
    23:00 -16°C° 0 mm 2 mps 744 mmHg 97%
    Show more